Weather History for K11R - April, 2013

Change the Weather History Date:

Friday, April 19, 2013

  Actual Average (KCLL) Record (KCLL)
Temperature  
Mean Temperature 54 °F 69 °F  
Max Temperature 67 °F 80 °F 96 °F (2011)
Min Temperature 42 °F 59 °F 39 °F (1953)
Degree Days  
Heating Degree Days 10 1  
Month to date heating degree days 39  
Since 1 July heating degree days 1598  
Cooling Degree Days 0 5  
Month to date cooling degree days 80  
Year to date cooling degree days 167  
Growing Degree Days 4 (Base 50)    
Moisture  
Dew Point 33 °F    
Average Humidity 48    
Maximum Humidity 82    
Minimum Humidity 19    
Precipitation  
Precipitation 0.00 in 0.09 in 1.64 in (1970)
Month to date precipitation 1.54  
Year to date precipitation 10.80  
Sea Level Pressure  
Sea Level Pressure 30.22 in    
Wind  
Wind Speed 11 mph (NNW)    
Max Wind Speed 24 mph    
Max Gust Speed 32 mph    
Visibility 10 miles    
Events      
T = Trace of Precipitation, MM = Missing Value Source: NWS Daily Summary

Daily Weather History Graph

Daily Weather History Graph

Search for Another Location

Airport or City:

Trip Planner

Search our weather history database for the weather conditions in past years. The results will help you decide how hot, cold, wet, or windy it might be!

Date:

Astronomy

Apr. 19, 2013 Rise Set
Actual Time 6:53 AM CDT 7:55 PM CDT
Civil Twilight 6:29 AM CDT 8:20 PM CDT
Nautical Twilight 5:59 AM CDT 8:49 PM CDT
Astronomical Twilight 5:29 AM CDT 9:20 PM CDT
Moon 2:06 PM CDT (4/19) 2:43 AM CDT (4/19)
Length of Visible Light 13h 51m
Length of Day
13h 01m
First Quarter, 62% of the Moon is Illuminated
Apr 19
First Quarter
Apr 25
Full
May 2
Last Quarter
May 9
New
May 17
First Quarter

Hourly Weather History & Observations

Time (CDT) Temp. Windchill Dew Point Humidity Pressure Visibility Wind Dir Wind Speed Gust Speed Precip Events Conditions
12:15 AM 54.3 °F - 40.1 °F 59% 30.08 in 10.0 mi North 13.8 mph 19.6 mph N/A   Clear
12:35 AM 54.0 °F - 39.9 °F 59% 30.09 in 10.0 mi North 12.7 mph 18.4 mph N/A   Clear
12:55 AM 53.2 °F - 40.1 °F 61% 30.11 in 10.0 mi North 9.2 mph 16.1 mph N/A   Clear
1:15 AM 52.9 °F - 39.7 °F 61% 30.12 in 10.0 mi North 10.4 mph - N/A   Clear
1:35 AM 52.3 °F - 39.4 °F 61% 30.13 in 10.0 mi North 12.7 mph 16.1 mph N/A   Clear
1:55 AM 52.7 °F - 37.8 °F 57% 30.13 in 10.0 mi North 13.8 mph 21.9 mph N/A   Clear
2:15 AM 52.2 °F - 37.4 °F 57% 30.15 in 10.0 mi North 10.4 mph 16.1 mph N/A   Clear
2:35 AM 51.8 °F - 37.4 °F 58% 30.16 in 10.0 mi North 11.5 mph - N/A   Clear
2:55 AM 50.2 °F - 38.3 °F 64% 30.16 in 10.0 mi North 9.2 mph - N/A   Clear
3:15 AM 50.0 °F - 38.3 °F 64% 30.17 in 10.0 mi North 6.9 mph - N/A   Clear
3:35 AM 49.3 °F - 38.3 °F 66% 30.17 in 10.0 mi North 4.6 mph - N/A   Clear
3:55 AM 47.8 °F - 38.3 °F 70% 30.18 in 10.0 mi North 3.5 mph - N/A   Clear
4:15 AM 46.6 °F - 38.5 °F 73% 30.19 in 10.0 mi NNW 3.5 mph - N/A   Clear
4:35 AM 46.6 °F - 38.3 °F 73% 30.19 in 10.0 mi North 5.8 mph - N/A   Clear
4:55 AM 46.6 °F - 38.3 °F 73% 30.19 in 10.0 mi North 6.9 mph - N/A   Clear
5:15 AM 46.2 °F 42.7 °F 38.1 °F 73% 30.19 in 10.0 mi North 6.9 mph - N/A   Clear
5:35 AM 46.4 °F 42.9 °F 39.2 °F 76% 30.19 in 10.0 mi North 6.9 mph - N/A   Clear
5:55 AM 45.0 °F 41.2 °F 38.5 °F 78% 30.20 in 10.0 mi NNW 6.9 mph - N/A   Clear
6:15 AM 43.9 °F 41.3 °F 37.9 °F 80% 30.21 in 10.0 mi NNW 4.6 mph - N/A   Clear
6:35 AM 43.7 °F 42.1 °F 37.8 °F 80% 30.23 in 10.0 mi NW 3.5 mph - N/A   Clear
6:55 AM 42.4 °F 39.6 °F 37.2 °F 82% 30.24 in 10.0 mi NW 4.6 mph - N/A   Clear
7:15 AM 42.6 °F 39.0 °F 37.4 °F 82% 30.24 in 10.0 mi NNW 5.8 mph - N/A   Clear
7:35 AM 44.6 °F 42.2 °F 38.3 °F 79% 30.24 in 10.0 mi NNW 4.6 mph - N/A   Clear
7:55 AM 46.2 °F 43.3 °F 38.5 °F 74% 30.25 in 10.0 mi NNW 5.8 mph - N/A   Clear
8:15 AM 47.3 °F - 38.5 °F 71% 30.26 in 10.0 mi NNW 3.5 mph - N/A   Clear
8:35 AM 48.6 °F - 38.3 °F 68% 30.27 in 10.0 mi North 6.9 mph - N/A   Clear
8:55 AM 50.7 °F - 38.3 °F 62% 30.27 in 10.0 mi North 6.9 mph - N/A   Clear
9:15 AM 52.2 °F - 35.2 °F 53% 30.27 in 10.0 mi North 9.2 mph 18.4 mph N/A   Clear
9:35 AM 53.6 °F - 35.6 °F 51% 30.27 in 10.0 mi North 10.4 mph 20.7 mph N/A   Clear
9:55 AM 54.9 °F - 34.5 °F 46% 30.27 in 10.0 mi North 15.0 mph 19.6 mph N/A   Clear
10:15 AM 55.8 °F - 31.8 °F 40% 30.27 in 10.0 mi North 17.3 mph 28.8 mph N/A   Clear
10:35 AM 56.7 °F - 31.6 °F 39% 30.28 in 10.0 mi North 20.7 mph 27.6 mph N/A   Clear
10:55 AM 57.7 °F - 32.0 °F 38% 30.28 in 10.0 mi North 17.3 mph 28.8 mph N/A   Clear
11:15 AM 59.0 °F - 30.6 °F 34% 30.29 in 10.0 mi NNW 18.4 mph 28.8 mph N/A   Clear
11:35 AM 59.5 °F - 31.5 °F 35% 30.29 in 10.0 mi NNW 16.1 mph 24.2 mph N/A   Clear
11:55 AM 59.5 °F - 29.7 °F 32% 30.28 in 10.0 mi NNW 18.4 mph 26.5 mph N/A   Clear
12:15 PM 60.3 °F - 29.1 °F 31% 30.28 in 10.0 mi NNW 21.9 mph 26.5 mph N/A   Clear
12:35 PM 62.4 °F - 29.1 °F 28% 30.28 in 10.0 mi NNW 21.9 mph 26.5 mph N/A   Clear
12:55 PM 62.6 °F - 29.1 °F 28% 30.27 in 10.0 mi North 20.7 mph 27.6 mph N/A   Clear
1:15 PM 63.7 °F - 29.5 °F 28% 30.26 in 10.0 mi North 21.9 mph 28.8 mph N/A   Clear
1:35 PM 63.9 °F - 25.9 °F 24% 30.26 in 10.0 mi North 19.6 mph 32.2 mph N/A   Clear
1:55 PM 65.1 °F - 26.6 °F 23% 30.25 in 10.0 mi North 21.9 mph 29.9 mph N/A   Clear
2:15 PM 65.3 °F - 27.3 °F 24% 30.25 in 10.0 mi NNW 24.2 mph 31.1 mph N/A   Clear
2:35 PM 64.8 °F - 25.5 °F 23% 30.24 in 10.0 mi NW 24.2 mph 32.2 mph N/A   Clear
2:55 PM 65.7 °F - 24.6 °F 21% 30.23 in 10.0 mi NNW 18.4 mph 26.5 mph N/A   Clear
3:15 PM 65.8 °F - 24.6 °F 21% 30.22 in 10.0 mi North 20.7 mph 31.1 mph N/A   Clear
3:35 PM 66.7 °F - 24.6 °F 20% 30.22 in 10.0 mi North 17.3 mph 29.9 mph N/A   Clear
3:55 PM 66.2 °F - 23.0 °F 19% 30.21 in 10.0 mi NNW 18.4 mph 26.5 mph N/A   Clear
4:15 PM 67.3 °F - 25.0 °F 20% 30.20 in 10.0 mi NNW 13.8 mph 25.3 mph N/A   Clear
4:35 PM 66.9 °F - 23.4 °F 19% 30.20 in 10.0 mi NNW 11.5 mph 25.3 mph N/A   Clear
4:55 PM 67.3 °F - 25.3 °F 21% 30.19 in 10.0 mi North 13.8 mph 20.7 mph N/A   Clear
5:15 PM 66.9 °F - 24.1 °F 20% 30.19 in 10.0 mi NW 18.4 mph 25.3 mph N/A   Clear
5:35 PM 66.4 °F - 22.8 °F 19% 30.18 in 10.0 mi NNW 13.8 mph 25.3 mph N/A   Clear
5:55 PM 66.6 °F - 23.7 °F 20% 30.19 in 10.0 mi NNW 13.8 mph 17.3 mph N/A   Clear
6:15 PM 66.2 °F - 23.5 °F 20% 30.18 in 10.0 mi NNW 15.0 mph - N/A   Clear
6:35 PM 65.7 °F - 24.1 °F 21% 30.18 in 10.0 mi NNW 13.8 mph 17.3 mph N/A   Clear
6:55 PM 64.8 °F - 24.8 °F 22% 30.19 in 10.0 mi North 10.4 mph - N/A   Clear
7:15 PM 63.7 °F - 25.5 °F 24% 30.18 in 10.0 mi NNW 8.1 mph - N/A   Clear
7:35 PM 61.9 °F - 27.9 °F 28% 30.19 in 10.0 mi NNW 6.9 mph - N/A   Clear
7:55 PM 59.9 °F - 28.9 °F 31% 30.19 in 10.0 mi NNW 5.8 mph - N/A   Clear
8:15 PM 58.6 °F - 31.1 °F 35% 30.20 in 10.0 mi NNW 4.6 mph - N/A   Clear
8:35 PM 58.1 °F - 30.4 °F 35% 30.20 in 10.0 mi NNW 4.6 mph - N/A   Clear
8:55 PM 57.2 °F - 30.9 °F 37% 30.21 in 10.0 mi North 3.5 mph - N/A   Clear
9:15 PM 53.4 °F - 33.6 °F 47% 30.22 in 10.0 mi North 4.6 mph - N/A   Clear
9:35 PM 55.2 °F - 32.0 °F 41% 30.23 in 10.0 mi North 3.5 mph - N/A   Clear
9:55 PM 50.9 °F - 36.7 °F 58% 30.24 in 10.0 mi Calm Calm - N/A   Clear
10:15 PM 50.0 °F - 37.0 °F 61% 30.24 in 10.0 mi Calm Calm - N/A   Clear
10:35 PM 49.6 °F - 37.2 °F 62% 30.25 in 10.0 mi Calm Calm - N/A   Clear
10:55 PM 48.9 °F - 38.3 °F 67% 30.25 in 10.0 mi Calm Calm - N/A   Clear
11:15 PM 48.9 °F - 37.4 °F 64% 30.25 in 10.0 mi Calm Calm - N/A   Clear
11:35 PM 46.4 °F - 37.0 °F 70% 30.25 in 10.0 mi Calm Calm - N/A   Clear
11:55 PM 46.0 °F - 37.8 °F 73% 30.25 in 10.0 mi Calm Calm - N/A   Clear